Home   Weather   Vienna   Past weeks

Flag for Austria Past Weather in Vienna, Vienna, Austria — Yesterday and Last 2 Weeks

Now
31 °F

Chilly.


Feels Like: 31 °F
Forecast: 22 / 33 °F
Wind: 2 mph from Southeast

Location: Wien / Hohe Warte

Current Time: Dec 7, 2016 at 9:38:26 pm

Latest Report: Dec 7, 2016 at 8:00 pm


Visibility: N/A

Pressure: 30.64 "Hg

Humidity: 88%

Dew Point: 28 °F

Location of ViennaLocation

Past Weather in Vienna — Graph

°F

Vienna Temperature Yesterday

Maximum temperature yesterday: 33 °F (at 3:00 pm)
Minimum temperature yesterday: 27 °F (at 5:00 am)
Average temperature yesterday: 31 °F

High & Low Weather Summary for the Past Weeks

 TemperatureHumidityPressure
High52 °F (Nov 22, 8:00 pm)98% (Nov 25, 1:00 am)30.71 "Hg (Nov 25, 1:00 am)
Low24 °F (Dec 4, 6:00 am)41% (Nov 30, 12:00 pm)29.80 "Hg (Dec 2, 7:00 am)
Average37 °F79%30.26 "Hg
* Reported Nov 22 8:00 pm — Dec 7 8:00 pm, Vienna, Weather by CustomWeather, © 2016

Note: Actual official high and low records may vary slightly from our data, if they occured in-between our weather recording intervals... More about our weather records

Advertising

Vienna Weather History for the Previous 24 Hours

Scroll right to see more
 ConditionsComfort  
Time TempWeatherWind HumidityBarometerVisibility
8:00 pm
Wed, Dec 7
31 °FChilly.2 mph88%30.64 "HgN/A
7:00 pm33 °FPassing clouds.1 mph86%30.64 "Hg6 mi
6:00 pm33 °FPassing clouds.2 mph84%30.65 "Hg6 mi
5:00 pm34 °FPassing clouds.2 mph81%30.66 "Hg6 mi
4:00 pm36 °FPassing clouds.3 mph77%30.64 "Hg7 mi
3:00 pm38 °FPartly sunny.3 mph73%30.63 "Hg7 mi
2:00 pm38 °FOvercast.3 mph71%30.64 "Hg7 mi
1:00 pm38 °FPartly sunny.3 mph72%30.64 "Hg7 mi
12:00 pm36 °FPassing clouds.2 mph79%30.68 "Hg7 mi
11:00 am33 °FPassing clouds.2 mph85%30.69 "Hg6 mi
10:00 am32 °FPassing clouds.1 mph87%30.71 "Hg6 mi
9:00 am30 °FPassing clouds.1 mph90%30.69 "Hg6 mi
8:00 am28 °FScattered clouds.No wind92%30.68 "Hg6 mi
7:00 am29 °FPassing clouds.1 mph92%30.68 "Hg6 mi
6:00 am31 °FChilly.No wind87%30.66 "HgN/A
4:00 am32 °FChilly.1 mph81%30.64 "HgN/A
3:00 am33 °FChilly.2 mph80%30.62 "HgN/A
1:00 am33 °FPassing clouds.2 mph82%30.60 "Hg4 mi
12:00 am30 °FChilly.1 mph86%30.60 "HgN/A
11:00 pm
Tue, Dec 6
31 °FChilly.1 mph83%30.59 "HgN/A
10:00 pm31 °FChilly.2 mph82%30.58 "HgN/A
9:00 pm32 °FPassing clouds.1 mph82%30.56 "Hg5 mi
Weather by CustomWeather, © 2016

See weather overviewHow to use our weather pages